STARLINK-11707, 64328

Orbit data source: Space-Track

STARLINK-11707, 64328 is a payload satellite owned by SpaceX/Seattle (US) in LEO that was launched on Tue, 10 Jun 2025 UTC via an FALCON 9 launch vehicle from the Air Force Eastern Test Range (AFETR). Payload-class satellites include a variety of spacecraft equipped with specific instruments for various scientific and technological missions. These include communications satellites like Starlink; space stations such as the ISS; scientific satellites like the Hubble; Earth observation satellites from companies like Planet Labs, Umbra, and HawkEye 360; GPS; miniature CubeSats for education and research; and military/defense satellites.

Loading next visibility...
Identifier
64328, 2025-124M
Orbit
LEO
Last TLE update
14 hours ago
Origin
Manufacturer
SpaceX/Seattle
Mission
Operational spacecraft
Bus & Motor
STARLINK V2M, Unknown motor
Mass
730 kg wet, ~700 kg dry
Launch date (UTC)
2025-06-10 (1 month ago)
Launch vehicle
FALCON 9
Launch site
Air Force Eastern Test Range (AFETR)
Object type
Payload
Rocket body
Debris
Shape & HBR
Unknown
Radar Cross Section
Large (>1 m²)

Expand to show TLE details & history

TLE from 14 hours ago
0 STARLINK-11707
1 64328U 25124M   25199.75685966  .00134048  00000-0  10302-2 0  9993
2 64328  42.9996 359.2227 0002340 271.0071  89.0528 15.70866402  6042
Epoch: 2025-07-18T18:09Z
TLE epoch observation values (Epoch: 2025-07-18T18:09:52.674Z)
Latitude
-0.00006°
Longitude
149.94941°
Altitude
356.165 km
Speed
7.697 km/s
True Right ascension
23h 56m 53s
True Declination
0° 00' 00"
Sunlit
Object was in full shadow at epoch
Visualization orbit readout
Latitude
23.6187°
Longitude
-61.44953°
Altitude
356.669 km
Speed
7.699 km/s
Apparent Right ascension
09h 37m 16s
Apparent Declination
-7° 09' 48"
Sunlit
Object is in daylight
Visualization observer readout
Local Sidereal Time
21:19:36
Azimuth
351.931° N
Elevation
-57.009°
Doppler factor
1
Orbital elements
Apogee altitude
359.978 km
Perigee altitude
356.825 km
Semi-major axis
6,736.538 km
Eccentricity
0.00023
Inclination
42.9996°
RAAN
359.2227°
Arg. of periapsis
271.0071°
True anomaly
89.07961°
Mean anomaly
89.0528°
Eccentric anomaly
89.06621°
Mean motion
3.92544 °/min
Orbital period
91.71 mins
BSTAR
0.0010302
Loading maneuver chart data...
Loading SW <> Apogee altitude chart data...
Loading historical data...
Loading historical data...
Loading historical data...
Loading historical data...
Loading historical data...
Loading historical data...
Loading historical data...
|